Location: Grust
(42.8833°N, 0.0333°W)
Time: 14:15:42
(UTC+00:00)

SL-4 R/B - Pass Details

Date: 25 October 2020
Orbit: 427 x 665 km, 51.6° (Epoch: 24 November)

Event Time Altitude Azimuth Distance (km) Brightness Sun altitude
Rises 19:33:36 0° 302° (WNW) 2,483 6.4 -28.4°
Reaches altitude 10° 19:35:56 10° 316° (NW) 1,642 5.1 -28.8°
Enters shadow 19:36:56 16° 327° (NNW) 1,331 4.4 -29.0°
